BEIDOU-3 G3

Last updated on Mon Sep 07 2026 00:03:01 GMT+0000 (Coordinated Universal Time)

1 45807U 20040A 26249.61366175 -.00000370 00000+0 00000+0 0 9997 2 45807 2.6412 67.4065 0002550 282.5327 327.2450 1.00272587 22885
UTC large
Height (km)
Speed (km/s)
/
Latitude / Longitude
Inclination (degrees)
Orbital Period (minutes)
Azimuth
Elevation
Range (km)
Doppler Factor

Next 0 passes for location: London (51.5072 / 0.1276)

No passes found over London.
BEIDOU-3 G3